Other Surface Observations
Issued by NWS

Home | Current Version | Previous Version | Text Only | Print | Product List | Glossary On
Versions: 1 2 3 4 5 6 7 8 9 10 11 12 13 14 15 16 17 18 19 20 21 22 23 24 25 26 27 28 29 30 31 32 33 34 35 36 37 38 39 40 41 42 43 44 45 46 47 48 49 50
765
SXUS52 KTAE 290018
OSOTAE
OSOTAE
North Florida/South Alabama/Southwest Georgia Weather Roundup
National Weather Service Tallahassee Florida
800 PM EDT SUN AUG 28 2016

Note: "fair" indicates few or no clouds below 12,000 feet with no
significant weather and/or obstructions to visibility.

!FLZ017-115-028-034-025-290100
...North Florida...

CITY           SKY/WX    TMP DP  RH WIND       PRES   REMARKS
TALLAHASSEE    PTCLDY    90  70  51 NE5       29.95S HX  95
APALACHICOLA   PTCLDY    86  78  77 NE7       29.94S HX  98
PERRY          CLEAR     87  70  56 CALM      29.95S HX  91
CROSS CITY     CLEAR     86  72  62 NE5       29.95R HX  92
JACKSONVILLE   PTCLDY    83  76  79 NE13      29.99R HX  91
$$

!FLZ112-006-005-002-011-290100
...Florida Panhandle...

CITY           SKY/WX    TMP DP  RH WIND       PRES   REMARKS
MARIANNA       CLEAR     87  71  58 CALM      29.96R HX  93
BONIFAY        FAIR      83  78  85 CALM      29.97R HX  93
PANAMA CITY NW TSTM      77  75  93 NE12G31   29.97S
TYNDALL AFB    MOCLDY    82  77  83 N5        29.95R THUNDER HX  91
TYND DRONE APT MOCLDY    82  79  89 E8        29.97R HX  93
DE FUNIAK SPR  FAIR      83  75  76 NW3       29.98S HX  91
EGLIN AFB      MOCLDY    84  73  70 NW3       29.96R HX  90
DESTIN         CLOUDY    88  77  69 NW3       29.96R HX 100
HURLBURT       MOCLDY    82  74  75 N6        29.96R
CRESTVIEW      CLOUDY    83  75  77 W5        29.99R HX  90
PENSACOLA      CLOUDY    85  74  69 SW3       29.97R HX  92
$$

!ALZ063-066-290100
...South Alabama...

CITY           SKY/WX    TMP DP  RH WIND       PRES   REMARKS
DOTHAN         CLEAR     82  74  76 NE3       30.01S
OZARK CAIRNS   CLEAR     85  69  58 NE5       29.98R
FT RUCKER HELI CLOUDY    82  72  71 CALM      29.97R
RUCKER HELI 3  NOT AVBL
RUCKER HELI 2  FAIR      85  73  67 CALM      29.97R HX  91
FLORALA APT    CLOUDY    78  76  93 CALM      30.00R
ANDALUSIA      MOCLDY    85  74  69 CALM      29.98R HX  92
TROY           CLEAR     87  70  56 NE3       30.00R HX  92
EUFALA         FAIR      90  67  46 CALM      29.98R HX  93
MOBILE         CLOUDY    74  73  97 NW5       29.98F
$$

!GAZ120>161-290100
...Southwest and South Central Georgia...

CITY           SKY/WX    TMP DP  RH WIND       PRES   REMARKS
THOMASVILLE    FAIR      88  75  66 E6        29.99R HX  97
BAINBRIDGE     CLEAR     90  68  48 NE6       29.97R HX  93
MOODY AFB      CLEAR     83  73  71 E6        29.98S
VALDOSTA       CLEAR     84  75  74 E8        29.99R HX  92
MOULTRIE       CLEAR     86  70  58 CALM      30.00R HX  90
BLAKELY        CLEAR     86  70  58 CALM      29.98R HX  90
ALBANY         PTCLDY    90  66  45 E5        29.99S HX  92
TIFTON         FAIR      85  72  63 SE6       30.00R HX  91
FITZGERALD     FAIR      88  77  69 SE3       30.02S HX 100
CORDELE        FAIR      93  66  41 E5        30.00R HX  95
AMERICUS       FAIR      88  59  37 E5        30.01S
HOMERVILLE     FAIR      84  75  74 E6        30.01R HX  92
$$

!GMZ750-755-770-775-290100
...Coastal and Buoy Obs...

STATION/POSITION TIME  TEMP    WIND        PRES    VSBY  WAVE
                       AIR SEA DIR/SP/G                  HT/PER
                 (UTC) (F)     (DEG/KT/KT) (MB)    (MI)  (FT/S)
KEATON BEACH     0000   85      60/  4/  5 1013.7R
CEDAR KEY        0000   82      30/  4/  6 1014.0R
C TOWER          0000   85      90/ 12/ 13 1014.4R
APALACHICOLA BUO 2350   85 86   60/ 16/ 19 1013.3R         3/ 5
PANAMA CITY BUOY 2350   85 85   80/ 12/ 14 1013.5F         3/ 6
MOBILE BUOY      0000   81 86   30/  8/  8 1013.3F
ORANGE BCH AL BU 2350   84 86  110/  2/  4 1014.3F         3/ 5
$$




USA.gov is the U.S. government's official web portal to all federal, state and local government web resources and services.